Probability
0 0 0 0 0 0 0 0 0 3 6 3 3 10 10 13 19 19 19 16 19 19 26 23 23 19 23 26 29 29 26 19 19 19 23 19 19 19 16 19 23 29 26 26
0 0 0 0 3 0 0 0 0 0 3 3 6 10 6 3 13 16 16 16 19 23 19 26 29 26 26 26 26 26 23 19 19 19 19 23 19 13 13 16 16 19 19 19
0 3 3 3 3 3 3 0 0 0 3 3 0 6 10 3 6 10 13 19 19 19 26 26 32 29 26 23 19 16 19 19 19 19 19 19 19 23 16 13 16 16 16 16
3 3 3 3 3 3 3 0 0 0 0 0 0 0 10 10 10 19 16 19 19 26 23 26 32 26 19 19 19 16 16 16 19 16 16 19 23 19 16 16 16 13 10 10
3 0 3 0 0 0 0 0 0 0 0 0 0 0 3 3 10 16 16 13 19 19 23 23 23 26 19 19 19 16 16 16 16 16 16 19 16 19 16 16 16 10 6 6
0 0 0 0 0 0 0 0 0 0 0 0 0 0 0 3 6 10 13 13 19 19 23 23 19 19 19 19 16 13 13 13 13 10 10 13 16 19 19 16 13 6 6 6
0 0 0 0 0 0 0 0 0 0 0 0 0 0 3 3 3 3 6 10 10 13 16 19 19 19 16 19 16 13 13 16 13 10 10 13 16 19 19 19 13 10 10 10
0 0 0 0 0 0 0 0 0 0 0 0 0 0 3 3 3 0 6 10 10 10 10 16 19 16 13 10 6 10 10 10 10 10 10 13 13 16 16 16 13 10 13 10
0 0 0 0 0 0 0 0 0 0 0 0 0 3 3 0 0 0 0 6 6 6 6 10 16 19 13 10 10 13 16 16 10 10 10 10 10 13 13 16 13 16 16 6
0 0 0 0 0 0 0 0 0 0 0 0 0 0 0 3 3 3 3 6 3 6 6 13 19 19 13 10 13 13 10 10 6 6 10 10 10 10 10 10 10 10 10 10
0 0 0 0 0 0 0 0 0 0 0 0 0 0 0 6 6 3 3 6 3 6 6 6 16 19 16 6 10 6 3 10 3 3 3 6 10 10 10 10 6 6 6 6
0 0 0 0 0 0 0 0 0 0 0 0 0 0 0 3 0 0 0 6 6 10 6 10 16 10 10 3 6 10 6 6 3 3 3 3 3 3 6 3 3 3 6 6
0 0 0 0 0 0 0 0 0 0 0 0 0 0 0 3 3 3 6 10 6 10 6 6 10 10 10 10 6 10 10 6 3 3 3 3 3 0 0 0 3 0 0 0
0 0 0 0 0 0 0 0 0 0 0 0 0 0 0 3 3 6 6 10 10 10 10 6 10 10 10 10 10 6 10 6 3 3 3 0 0 0 0 0 0 0 0 0
0 0 0 0 0 0 0 0 0 0 0 0 0 0 0 0 0 3 3 6 10 13 10 3 6 6 6 6 13 13 3 3 3 3 3 0 0 0 0 0 0 0 0 0
3 0 0 0 0 0 0 0 0 0 0 0 0 0 3 3 3 6 10 6 3 6 3 3 3 6 6 6 10 10 6 3 3 3 0 0 0 0 0 0 0 0 0 0
0 0 0 0 0 0 0 0 0 0 0 0 0 0 3 3 3 6 10 6 3 0 3 3 6 6 6 6 10 6 6 3 0 0 0 0 0 0 0 0 0 0 0 0
0 0 0 0 0 0 0 0 0 0 0 0 0 3 0 0 3 6 6 6 3 0 3 3 6 6 6 6 6 3 3 3 3 0 0 0 0 0 0 0 0 0 0 0
0 0 0 0 0 0 0 0 0 0 0 0 0 0 0 3 3 3 3 3 3 3 0 3 6 3 3 3 6 3 3 0 3 3 0 0 0 0 0 0 0 0 0 0
0 0 0 0 0 0 0 0 0 0 0 0 0 0 0 0 0 3 3 3 3 3 0 0 6 3 3 3 6 6 3 0 3 0 0 0 0 0 0 0 0 0 0 3
0 0 0 0 0 0 0 0 0 0 0 0 0 0 0 0 0 6 6 0 3 3 0 0 0 6 3 3 3 6 0 0 0 0 0 0 0 0 0 0 0 0 0 0
0 0 0 0 0 0 0 0 0 0 0 3 3 0 0 0 3 6 6 0 0 0 0 0 3 6 3 6 3 0 0 0 0 0 0 0 0 0 0 0 0 0 0 0
0 0 0 0 0 0 0 0 0 0 0 0 0 3 3 0 0 3 6 10 0 0 0 0 3 3 3 3 3 3 0 0 0 0 0 0 0 0 0 0 0 0 0 0
0 0 0 0 0 0 0 0 0 0 0 0 0 0 0 0 0 0 10 10 3 0 0 0 0 0 0 6 0 3 0 0 0 0 3 3 0 0 0 0 0 0 3 0
0 0 0 0 0 0 0 0 0 0 0 0 0 0 0 0 3 3 13 6 0 0 0 0 0 0 0 0 0 0 0 0 0 0 0 0 0 0 0 0 3 0 3 3
0 0 0 0 0 0 0 0 0 0 0 0 0 0 0 0 3 6 6 10 0 0 0 0 0 0 0 0 0 0 0 0 0 0 0 0 0 0 0 0 0 0 0 0
Height
5866 5867 5867 5867 5867 5867 5866 5867 5866 5865 5864 5864 5863 5862 5862 5861 5860 5859 5858 5856 5855 5853 5851 5849 5846 5844 5841 5838 5836 5833 5830 5827 5823 5820 5817 5814 5811 5809 5806 5804 5801 5799 5797 5795
5867 5867 5866 5866 5865 5865 5865 5865 5864 5863 5862 5861 5860 5860 5859 5858 5857 5855 5854 5852 5850 5849 5847 5844 5842 5839 5836 5833 5830 5827 5823 5820 5816 5813 5810 5807 5804 5801 5798 5796 5794 5792 5790 5788
5867 5867 5865 5865 5864 5864 5863 5863 5862 5861 5860 5859 5858 5857 5856 5855 5853 5852 5850 5848 5846 5844 5841 5839 5836 5833 5830 5827 5824 5820 5817 5813 5809 5806 5802 5799 5796 5793 5791 5789 5786 5784 5782 5780
5866 5865 5865 5864 5863 5862 5862 5861 5859 5858 5858 5857 5856 5855 5853 5851 5849 5848 5846 5844 5842 5839 5836 5833 5830 5827 5824 5821 5817 5814 5810 5806 5803 5799 5795 5792 5789 5786 5784 5781 5778 5776 5774 5772
5865 5864 5864 5863 5862 5861 5860 5859 5857 5856 5856 5855 5853 5853 5850 5847 5845 5843 5842 5839 5837 5834 5831 5828 5825 5822 5818 5815 5811 5808 5804 5800 5796 5793 5789 5785 5782 5779 5776 5773 5771 5769 5767 5765
5865 5864 5863 5861 5860 5859 5858 5857 5856 5854 5854 5853 5851 5850 5848 5844 5842 5840 5838 5835 5832 5829 5826 5823 5820 5817 5813 5810 5806 5802 5798 5794 5790 5787 5782 5779 5775 5772 5768 5766 5763 5761 5759 5757
5864 5863 5861 5860 5859 5857 5856 5856 5856 5855 5854 5852 5848 5846 5845 5841 5839 5836 5834 5831 5828 5825 5822 5818 5815 5811 5808 5804 5800 5796 5792 5788 5784 5780 5776 5772 5769 5765 5761 5759 5756 5754 5752 5751
5863 5862 5859 5858 5857 5855 5854 5854 5854 5853 5851 5849 5845 5842 5841 5838 5835 5833 5830 5827 5824 5820 5817 5813 5810 5806 5802 5798 5794 5790 5786 5782 5778 5774 5770 5766 5762 5758 5755 5752 5750 5748 5746 5745
5861 5860 5858 5856 5854 5854 5852 5851 5850 5849 5846 5844 5842 5839 5836 5834 5832 5829 5826 5823 5820 5816 5812 5809 5805 5801 5797 5793 5789 5785 5781 5777 5772 5769 5765 5761 5757 5753 5750 5747 5745 5742 5741 5739
5858 5857 5855 5854 5853 5852 5851 5849 5847 5845 5843 5842 5840 5837 5834 5831 5828 5826 5822 5819 5816 5812 5808 5804 5800 5796 5792 5788 5784 5780 5775 5771 5767 5763 5759 5756 5752 5749 5745 5742 5740 5738 5736 5734
5855 5855 5854 5852 5851 5849 5848 5846 5844 5842 5840 5839 5837 5836 5830 5827 5824 5822 5818 5815 5811 5808 5804 5800 5796 5792 5788 5784 5779 5775 5771 5767 5762 5758 5754 5751 5748 5744 5741 5738 5735 5733 5731 5729
5853 5852 5851 5850 5848 5846 5845 5843 5841 5840 5837 5835 5833 5832 5826 5823 5820 5817 5814 5811 5807 5804 5800 5796 5792 5788 5784 5780 5776 5771 5767 5763 5758 5754 5751 5747 5744 5740 5737 5734 5731 5729 5727 5725
5850 5849 5848 5847 5847 5844 5842 5840 5838 5836 5834 5831 5830 5829 5822 5819 5816 5813 5809 5806 5803 5799 5796 5792 5788 5784 5780 5776 5772 5768 5764 5759 5755 5751 5747 5744 5740 5737 5733 5731 5728 5726 5724 5722
5847 5846 5846 5846 5843 5840 5838 5836 5834 5832 5830 5828 5826 5823 5819 5815 5812 5809 5805 5802 5798 5795 5792 5788 5784 5780 5776 5772 5768 5764 5760 5756 5753 5749 5745 5741 5738 5734 5731 5728 5726 5723 5721 5719
5844 5843 5841 5840 5838 5837 5835 5833 5830 5829 5826 5824 5822 5818 5815 5811 5808 5805 5801 5798 5794 5791 5788 5784 5780 5776 5773 5769 5765 5761 5758 5754 5750 5746 5742 5739 5735 5733 5730 5727 5724 5721 5719 5716
5839 5839 5837 5836 5834 5833 5831 5829 5827 5824 5822 5820 5817 5814 5811 5807 5804 5801 5797 5794 5790 5787 5784 5780 5776 5773 5769 5765 5762 5758 5755 5751 5748 5744 5740 5737 5734 5731 5728 5725 5722 5719 5717 5714
5835 5834 5833 5832 5830 5829 5827 5825 5823 5820 5818 5816 5813 5810 5806 5804 5800 5797 5793 5790 5786 5783 5780 5776 5772 5769 5765 5762 5759 5755 5752 5749 5745 5742 5739 5735 5732 5730 5727 5724 5720 5717 5715 5712
5831 5830 5828 5827 5827 5825 5825 5821 5819 5816 5814 5811 5808 5806 5802 5799 5796 5793 5790 5786 5783 5779 5776 5772 5769 5766 5762 5759 5756 5753 5749 5746 5743 5740 5737 5734 5731 5728 5725 5722 5719 5716 5713 5710
5825 5825 5824 5823 5821 5819 5819 5816 5814 5811 5809 5807 5804 5802 5798 5795 5792 5789 5786 5783 5779 5776 5772 5769 5766 5763 5760 5757 5753 5750 5747 5744 5741 5738 5735 5732 5729 5726 5724 5721 5717 5714 5711 5708
5820 5819 5819 5817 5816 5814 5814 5811 5808 5807 5804 5803 5800 5797 5795 5792 5790 5787 5783 5779 5776 5772 5769 5766 5763 5760 5757 5754 5751 5748 5745 5742 5739 5737 5734 5731 5728 5725 5722 5719 5716 5713 5710 5707
5814 5813 5812 5811 5809 5808 5807 5805 5804 5803 5801 5798 5795 5793 5791 5788 5786 5782 5779 5775 5772 5769 5765 5762 5760 5757 5754 5751 5749 5746 5743 5741 5738 5735 5733 5730 5727 5724 5721 5718 5715 5712 5709 5706
5807 5807 5806 5805 5804 5804 5801 5799 5798 5797 5794 5792 5790 5788 5786 5784 5781 5778 5775 5771 5768 5765 5762 5759 5757 5754 5752 5749 5747 5744 5742 5739 5736 5734 5732 5729 5726 5723 5720 5717 5714 5711 5708 5706
5800 5800 5799 5799 5799 5796 5794 5793 5791 5790 5788 5786 5785 5783 5781 5779 5776 5774 5771 5768 5764 5762 5759 5756 5754 5752 5749 5747 5745 5742 5740 5738 5736 5733 5731 5728 5726 5723 5720 5717 5714 5711 5708 5706
5792 5792 5791 5790 5790 5788 5787 5786 5784 5783 5782 5780 5778 5777 5775 5773 5771 5769 5766 5764 5761 5758 5755 5753 5751 5749 5747 5745 5743 5741 5739 5737 5735 5733 5730 5728 5725 5723 5720 5717 5715 5712 5709 5706
5784 5783 5783 5782 5782 5780 5779 5778 5777 5776 5774 5773 5771 5770 5769 5767 5766 5764 5761 5759 5757 5755 5752 5750 5748 5746 5745 5743 5741 5740 5738 5736 5734 5732 5730 5727 5724 5722 5720 5718 5715 5712 5710 5707
5775 5775 5774 5774 5773 5772 5771 5770 5769 5768 5766 5765 5764 5763 5762 5761 5759 5758 5756 5754 5752 5751 5749 5747 5745 5744 5742 5741 5739 5738 5736 5735 5733 5731 5728 5726 5724 5722 5720 5717 5715 5713 5710 5708
Wind_Speed
2 1 1 3 3 4 5 6 8 9 10 10 10 11 12 13 14 15 17 18 18 19 20 21 22 23 24 25 25 26 28 28 30 29 30 30 30 31 31 31 31 31 30 30
1 1 2 3 4 5 6 7 7 8 10 10 11 11 12 13 14 15 17 18 20 20 22 23 23 24 25 26 27 27 29 30 30 30 30 30 30 31 31 31 31 30 30 31
1 3 3 4 5 6 7 7 8 9 10 11 11 12 12 13 14 16 17 19 20 21 22 23 24 26 27 27 27 27 28 29 29 29 29 28 29 29 29 30 29 29 29 29
2 3 4 5 5 6 7 9 9 10 10 11 12 13 14 14 15 16 17 19 21 22 24 24 25 26 27 27 27 27 28 29 29 28 27 27 28 28 28 28 28 28 28 27
3 4 5 6 6 6 7 9 9 10 10 11 12 12 14 15 16 16 18 19 21 21 22 23 24 26 26 27 27 28 27 27 27 26 26 26 27 27 27 28 28 27 27 27
4 5 6 7 8 8 8 9 9 9 10 11 12 11 13 15 16 17 18 19 20 21 22 23 24 26 26 27 27 27 27 26 25 25 26 26 26 26 26 26 25 25 25 24
6 7 8 9 10 9 9 9 10 10 10 12 13 13 14 15 16 16 18 19 20 21 22 23 24 25 26 26 26 26 25 25 25 25 26 26 25 25 25 23 22 22 22 22
7 8 9 10 9 10 9 9 10 11 11 13 14 13 14 15 16 17 18 20 20 21 22 23 24 25 25 25 25 25 25 26 26 26 26 25 25 24 23 22 21 22 21 21
8 9 10 10 11 10 11 11 11 12 13 13 13 15 16 16 16 18 19 19 20 21 22 23 24 24 24 24 25 25 25 26 26 26 24 23 23 23 22 21 21 20 20 19
10 11 12 11 11 11 11 12 12 12 12 12 13 15 18 18 18 19 19 20 20 21 22 23 24 24 24 25 25 25 25 26 26 25 24 22 22 21 21 21 20 19 18 18
11 11 12 12 11 12 12 12 13 13 13 13 14 17 19 19 19 20 20 20 21 21 22 23 24 24 24 24 24 24 25 25 25 24 23 21 21 21 21 20 19 18 18 17
11 11 12 13 12 12 13 14 14 14 14 14 16 19 19 19 20 21 21 21 21 22 22 23 23 23 23 24 24 24 24 25 24 23 22 21 21 21 20 19 18 17 15 15
12 12 13 14 15 14 14 14 15 15 15 15 16 19 20 21 21 21 22 21 22 22 23 23 23 23 23 24 23 23 23 23 22 22 21 20 20 19 18 17 16 15 14 14
13 13 13 13 15 16 16 16 15 16 16 17 18 19 21 21 21 22 21 21 21 21 22 23 22 23 23 23 23 23 22 22 21 20 20 19 17 16 15 14 14 14 14 14
14 14 15 15 16 16 16 17 17 17 17 18 20 20 21 21 22 22 22 21 22 22 22 22 21 22 22 22 22 22 21 21 20 19 18 17 15 14 14 14 14 14 14 13
16 16 16 16 17 17 17 17 17 18 19 20 20 21 21 21 22 22 22 22 23 22 22 22 21 21 21 21 21 20 20 19 18 17 16 15 14 14 14 14 14 14 14 14
16 16 16 17 17 18 18 18 18 19 20 20 20 21 21 22 23 22 21 22 23 23 22 21 20 20 20 20 19 19 18 17 17 16 15 14 13 13 14 14 15 14 13 14
18 18 18 17 18 18 19 18 19 19 20 20 20 21 21 22 22 21 21 22 22 22 21 20 19 19 19 19 18 18 18 16 15 15 14 14 13 13 14 14 14 14 14 14
19 19 19 19 19 20 20 19 19 20 20 20 20 21 21 21 21 22 21 22 22 21 20 19 18 18 18 17 17 17 16 15 14 14 14 13 13 13 14 14 14 14 14 14
21 20 21 21 21 21 21 20 20 21 21 20 20 21 21 21 21 22 22 21 21 21 19 19 18 18 17 17 16 16 15 13 13 13 13 12 12 13 13 13 14 14 14 14
22 22 22 22 22 23 22 21 21 21 22 21 20 21 21 21 21 22 22 21 21 20 19 18 18 17 17 17 16 15 13 12 12 12 12 12 12 13 13 14 14 13 13 13
23 23 23 23 24 24 23 22 22 22 22 21 21 21 21 22 22 21 21 20 20 19 19 18 17 17 16 16 15 14 13 13 12 12 12 12 12 13 13 13 13 12 13 12
25 25 25 24 24 25 24 23 23 23 22 22 22 22 22 22 21 21 21 20 19 19 18 18 17 16 15 14 13 12 13 12 12 12 12 12 12 13 13 13 12 12 13 13
27 26 26 26 25 25 25 24 24 24 24 24 24 23 23 22 21 21 21 20 19 18 18 17 15 14 13 13 12 11 11 11 11 11 11 11 12 12 12 12 12 12 12 13
27 27 27 27 27 27 26 26 26 26 25 25 25 24 23 23 22 22 21 20 18 17 16 15 14 13 12 11 11 11 11 10 10 9 10 10 11 11 10 11 11 11 12 13
27 28 28 29 29 28 27 27 26 26 26 26 26 25 24 24 23 23 21 20 18 16 16 14 13 13 12 11 10 10 10 9 9 9 9 9 9 9 9 10 10 10 11 13
Wind_Direction
165 169 238 271 267 266 269 270 275 278 280 280 281 283 282 281 282 285 287 289 291 292 294 297 299 300 300 300 300 300 299 298 297 296 295 293 293 295 294 291 289 286 287 286
164 220 267 294 294 296 292 290 289 284 282 281 283 286 287 286 287 292 294 295 298 299 298 297 298 300 300 301 301 301 301 302 300 299 297 294 294 294 293 291 290 289 288 286
247 270 297 304 305 302 300 290 288 285 290 289 287 288 290 294 295 296 298 299 301 302 301 300 301 302 302 301 302 303 303 303 302 301 300 297 296 294 292 291 290 288 286 285
292 304 312 308 305 305 295 289 289 291 297 298 297 296 292 295 299 300 298 299 301 303 304 304 304 304 305 306 305 304 304 304 305 304 302 300 298 297 294 291 289 287 285 285
307 309 312 310 305 303 296 301 302 299 298 301 301 303 300 293 297 301 302 301 302 303 306 306 306 306 307 308 308 308 308 307 309 310 307 304 302 299 296 292 289 286 285 285
305 307 305 309 310 306 308 310 315 314 313 311 304 298 297 302 302 304 305 304 304 305 305 305 306 307 308 309 309 310 311 310 310 311 310 308 306 304 300 296 291 288 285 284
310 310 310 309 308 308 311 318 326 323 317 306 306 301 297 304 306 305 306 307 307 307 306 306 307 308 309 309 310 312 313 312 312 312 312 310 309 307 305 301 295 292 289 286
309 312 311 312 309 306 309 315 314 309 306 303 306 304 303 305 306 309 310 311 310 309 309 310 311 312 312 311 312 314 315 315 315 315 314 312 311 310 307 304 301 296 292 289
309 309 313 313 311 307 309 311 312 313 313 310 309 309 309 310 310 309 311 315 313 313 313 313 313 314 314 316 316 315 315 316 317 316 315 314 312 310 307 306 304 300 294 292
303 306 311 313 315 313 311 311 316 320 313 311 312 312 311 312 309 309 311 314 316 316 316 317 316 316 316 319 320 318 317 317 317 317 316 314 313 311 308 310 308 304 300 297
298 303 307 311 313 315 317 316 316 315 310 306 307 306 312 312 311 311 311 312 314 316 316 317 318 317 317 320 321 321 322 322 320 320 319 316 314 313 312 311 308 305 302 300
295 300 303 308 311 312 314 316 316 315 314 310 310 308 313 312 313 312 313 312 313 315 317 319 320 319 320 321 322 323 324 324 323 324 322 318 315 315 314 313 311 308 305 303
295 300 305 309 311 311 311 313 314 315 314 313 311 308 313 314 315 314 314 314 313 315 317 319 320 319 320 321 323 325 325 325 325 326 324 320 320 320 320 318 317 314 310 308
294 298 300 300 303 307 309 310 312 313 313 312 309 308 311 314 316 316 314 315 315 316 317 318 319 317 319 321 324 326 327 327 327 328 328 326 326 329 329 327 325 321 318 317
293 297 298 299 301 304 305 307 310 311 311 312 311 311 312 314 316 317 316 315 316 316 316 317 317 317 320 322 324 326 327 328 329 330 331 331 331 335 333 333 330 327 325 320
289 293 296 299 301 303 304 305 308 310 311 311 312 313 314 315 317 318 316 315 315 316 319 320 318 317 321 324 325 326 328 329 331 332 333 333 334 334 337 337 333 330 329 326
288 290 294 298 300 302 302 305 306 307 309 311 311 312 313 315 317 319 318 317 317 318 320 320 322 322 325 327 329 330 329 329 329 332 334 335 334 334 338 339 337 336 335 333
287 289 292 295 298 300 303 305 305 305 308 310 310 311 313 316 317 317 318 319 320 322 324 324 324 325 327 327 328 330 330 326 328 332 334 337 340 340 342 341 342 341 340 339
286 289 290 293 298 299 300 302 304 304 305 307 308 310 315 316 316 316 318 320 321 323 325 325 326 326 328 328 329 331 331 328 329 332 337 339 341 344 345 346 345 348 349 350
286 286 289 291 293 296 299 300 301 302 302 304 306 308 312 314 313 316 318 319 319 321 323 325 324 324 327 330 329 330 330 330 333 337 338 344 344 347 348 347 350 353 354 352
284 285 287 289 289 291 295 297 298 298 301 302 302 304 308 311 312 314 316 316 318 320 321 323 324 325 326 329 329 330 333 332 334 337 341 346 349 351 350 349 349 352 354 354
283 285 286 287 287 288 294 294 294 295 296 297 297 300 304 308 310 312 314 317 320 320 321 322 322 323 325 327 328 330 334 334 335 340 346 350 352 351 351 353 356 358 358 360
280 282 284 285 285 287 290 291 292 293 294 294 294 297 300 304 306 310 313 315 317 319 320 321 322 323 324 326 331 333 337 336 336 342 349 353 354 355 358 360 4 5 6 7
277 278 279 280 282 285 288 289 290 291 292 293 292 294 298 301 303 306 308 311 314 316 318 319 319 320 322 328 334 338 338 336 337 344 350 353 354 357 2 5 8 10 11 11
274 275 275 278 281 283 284 286 288 289 290 290 290 291 294 296 299 302 304 306 309 311 313 315 318 318 318 322 331 335 334 337 342 348 350 351 353 357 2 5 7 11 13 14
273 274 275 277 279 281 282 284 285 286 286 287 287 287 289 292 294 296 298 301 303 304 306 308 310 312 313 316 322 328 333 338 343 345 345 348 353 360 5 7 11 13 15 16